Regional Weather Roundup
Issued by NWS

Home | Current Version | Previous Version | Graphics & Text | Print | Product List | Glossary On
Versions: 1 2 3 4 5 6 7 8 9 10 11 12 13 14 15 16 17 18 19 20 21 22 23 24 25 26 27 28 29 30 31 32 33 34 35 36 37 38 39 40 41 42 43 44 45 46 47 48 49 50
000
ASUS43 KDTX 180010
RWRMI
MICHIGAN HOURLY REGIONAL WEATHER ROUNDUP
NATIONAL WEATHER SERVICE DETROIT/PONTIAC MI
700 PM EST FRI NOV 17 2017

NOTE: "FAIR" INDICATES FEW OR NO CLOUDS BELOW 12,000 FEET WITH NO
SIGNIFICANT WEATHER AND/OR OBSTRUCTION TO VISIBILITY.

MIZ047>049-052>055-059>063-066>070-074>076-081>083-180100-
SOUTHEAST LOWER MICHIGAN

CITY           SKY/WX    TMP DP  RH WIND       PRES   REMARKS
ADRIAN         MOCLDY    41  34  76 S9        29.89F
6HR MIN TEMP:  39; 6HR MAX TEMP:  42;

ALMA           CLOUDY    39  33  79 S6        29.83F WCI  35
ANN ARBOR      CLOUDY    40  33  76 E8        29.90F WCI  34
BAD AXE        PTCLDY    38  33  82 S16       29.88F WCI  29
6HR MIN TEMP:  35; 6HR MAX TEMP:  38;

CARO           CLOUDY    39  31  73 SE9G18    29.85F WCI  33
DETROIT CITY   CLOUDY    41  33  73 S8        29.94F
6HR MIN TEMP:  40; 6HR MAX TEMP:  42;

DETROIT        CLOUDY    42  34  73 SE8       29.93F
6HR MIN TEMP:  40; 6HR MAX TEMP:  42;

FLINT          MOCLDY    39  31  72 S15G24    29.87F WCI  31
6HR MIN TEMP:  39; 6HR MAX TEMP:  42;

GROSSE ILE     CLOUDY    43  36  75 S12       29.93F
6HR MIN TEMP:  40; 6HR MAX TEMP:  43;

HILLSDALE      CLOUDY    41  32  70 SE12G17   29.85F
HOWELL         CLOUDY    39  33  80 SE13      29.86F WCI  31
6HR MIN TEMP:  38; 6HR MAX TEMP:  41;


CITY           SKY/WX    TMP DP  RH WIND       PRES   REMARKS
JACKSON        MOCLDY    42  33  70 SE12      29.85F
6HR MIN TEMP:  39; 6HR MAX TEMP:  42;

LAMBERTVILLE   CLOUDY    45  33  63 SE10      29.92F
6HR MIN TEMP:  43; 6HR MAX TEMP:  46;

LANSING        CLOUDY    41  34  76 S18G28    29.83F
6HR MIN TEMP:  39; 6HR MAX TEMP:  41;

LAPEER         FAIR      39  31  72 S10G16    29.89F WCI  32
6HR MIN TEMP:  38; 6HR MAX TEMP:  41;

MASON          CLOUDY    41  34  74 SE15G21   29.83F
MONROE         MOCLDY    43  35  72 SE6       29.92F
6HR MIN TEMP:  41; 6HR MAX TEMP:  44;

MT. CLEMENS    CLOUDY    41  36  81 S10       29.91F
6HR MIN TEMP:  40; 6HR MAX TEMP:  42;

PONTIAC        CLOUDY    39  33  79 SE14      29.89F WCI  31
6HR MIN TEMP:  38; 6HR MAX TEMP:  40;

PORT HOPE        N/A     39  32  76 S12       29.86F WCI  32
6HR MIN TEMP:  36; 6HR MAX TEMP:  39;

PORT HURON     CLOUDY    39  32  75 S7        29.94F WCI  34
TRI CITIES     CLOUDY    40  32  73 S17G23    29.84F WCI  31
6HR MIN TEMP:  39; 6HR MAX TEMP:  42;

MIDLAND        FAIR      40  31  70 S9G16     29.83F WCI  34
6HR MIN TEMP:  38; 6HR MAX TEMP:  42;

TROY           CLOUDY    43  33  68 SE9       29.93F
SAGINAW HB     CLOUDY    37  32  81 S12       29.84F WCI  30
$$
MIZ043>046-050>051-056>058-064>065-071>073-077>080-180100-
SOUTHWEST LOWER MICHIGAN

CITY           SKY/WX    TMP DP  RH WIND       PRES   REMARKS
BATTLE CREEK   CLOUDY    43  34  70 S15G24    29.81F
6HR MIN TEMP:  39; 6HR MAX TEMP:  43; 6HR PCP: TRACE;

BENTON HARBOR  CLOUDY    44  35  70 SE15G23   29.74F
6HR MIN TEMP:  43; 6HR MAX TEMP:  45; 6HR PCP:  0.03;

BIG RAPIDS     LGT SNOW  37  33  85 SE9       29.76F WCI  30
6HR MIN TEMP:  36; 6HR MAX TEMP:  39; 6HR PCP:  0.02;

COLDWATER      CLOUDY    43  33  68 S12G20    29.83F
6HR MIN TEMP:  40; 6HR MAX TEMP:  43;

FREMONT        RAIN      38  37  94 SE12G20   29.73F WCI  31
HOLLAND        CLOUDY    42  36  79 SE13      29.75F
6HR MIN TEMP:  41; 6HR MAX TEMP:  44; 6HR PCP:  0.09;

GRAND RAPIDS   LGT RAIN  41  38  89 SE9       29.79F FOG
6HR MIN TEMP:  39; 6HR MAX TEMP:  43; 6HR PCP:  0.04;

IONIA          RAIN      41  34  77 S8        29.82S
6HR MIN TEMP:  39; 6HR MAX TEMP:  41;

KALAMAZOO      CLOUDY    43  33  68 S10G20    29.80F
6HR MIN TEMP:  41; 6HR MAX TEMP:  44; 6HR PCP: TRACE;

LUDINGTON      CLOUDY    39  35  83 SE10G16   29.68F WCI  33
6HR MIN TEMP:  37; 6HR MAX TEMP:  40; 6HR PCP:  0.06;

MARSHALL       LGT RAIN  42  33  71 SE9G16    29.82F
6HR MIN TEMP:  38; 6HR MAX TEMP:  42;

MOUNT PLEASANT MOCLDY    40  31  71 S9        29.81F WCI  33
6HR MIN TEMP:  37; 6HR MAX TEMP:  41;

MUSKEGON       CLOUDY    41  36  82 SE15      29.73F
6HR MIN TEMP:  41; 6HR MAX TEMP:  44; 6HR PCP:  0.08;

SOUTH HAVEN    CLOUDY    44  35  72 SE10      29.75F
$$
MIZ016>042-180100-
NORTHERN LOWER MICHIGAN

CITY           SKY/WX    TMP DP  RH WIND       PRES   REMARKS
ALPENA         CLOUDY    37  31  78 S9        29.82F WCI  30
6HR MIN TEMP:  34; 6HR MAX TEMP:  37;

BEAVER ISLAND  LGT RAIN  38  35  90 S3        29.75R
6HR MIN TEMP:  37; 6HR MAX TEMP:  40;

BELLAIRE       MIX PCPN  37  34  89 S9G20     29.71F WCI  30
6HR MIN TEMP:  36; 6HR MAX TEMP:  39;

CADILLAC       MIX PCPN  35  33  92 S9G21     29.74S WCI  27
CHARLEVOIX     LGT RAIN  37  32  83 SE8       29.73F WCI  30
6HR MIN TEMP:  35; 6HR MAX TEMP:  38;

FRANKFORT      CLOUDY    40  35  81 S13G18    29.67F WCI  33
GAYLORD        LGT RAIN  33  29  85 S16G24    29.71F WCI  23
6HR MIN TEMP:  30; 6HR MAX TEMP:  34; 6HR PCP:  0.01;

GRAYLING       LGT RAIN  34  30  86 SE9       29.76F WCI  27
6HR MIN TEMP:  34; 6HR MAX TEMP:  37;

HARBOR SPRINGS LGT RAIN  36  32  87 SE3       29.72F
HOUGHTON LAKE  CLOUDY    37  29  72 S13G20    29.78F WCI  29
6HR MIN TEMP:  34; 6HR MAX TEMP:  37;

MANISTEE       CLOUDY    39  35  86 SE12G17   29.67F WCI  32
OSCODA         CLOUDY    39  31  73 S13G21    29.83F WCI  31
6HR MIN TEMP:  34; 6HR MAX TEMP:  39;

PELLSTON       LGT RAIN  35  31  85 SE12      29.72F WCI  27
6HR MIN TEMP:  33; 6HR MAX TEMP:  37; 6HR PCP:  0.02;

ROGERS CITY    CLOUDY    36  30  79 S12G21    29.79F WCI  27
TRAVERSE CITY  LGT RAIN  38  33  82 VRB7G17   29.67F WCI  33
6HR MIN TEMP:  37; 6HR MAX TEMP:  41; 6HR PCP:  0.06;

$$
MIZ007>008-015-180100-
EASTERN UPPER MICHIGAN

CITY           SKY/WX    TMP DP  RH WIND       PRES   REMARKS
KINROSS        LGT RAIN  34  31  88 SE14      29.77S WCI  25
6HR MIN TEMP:  32; 6HR MAX TEMP:  35;

MACKINAC ISLAN MIX PCPN  36  31  82 SE7G16    29.75F WCI  30
6HR MIN TEMP:  33; 6HR MAX TEMP:  36;

NEWBERRY       MIX PCPN  32  32  99 SE7       29.73F WCI  26
6HR MIN TEMP:  31; 6HR MAX TEMP:  33; 6HR PCP:  0.02;

S. S. MARIE    LGT RAIN  37  31  78 SE15      29.78F WCI  28
6HR MIN TEMP:  34; 6HR MAX TEMP:  38; 6HR PCP: TRACE;

MUNISING         N/A     39  39 100 S5        29.66F
6HR MIN TEMP:  36; 6HR MAX TEMP:  40; 6HR PCP:  0.19;

$$
MIZ004>006-011>014-085-180100-
CENTRAL UPPER MICHIGAN

CITY           SKY/WX    TMP DP  RH WIND       PRES   REMARKS
MANISTIQUE     MIX PCPN  38  33  81 S12G20    29.70F WCI  30
6HR MIN TEMP:  38; 6HR MAX TEMP:  40; 6HR PCP:  0.11;

ESCANABA       LGT RAIN  39  39 100 CALM      29.67F
6HR MIN TEMP:  40; 6HR MAX TEMP:  43; 6HR PCP:  0.14;

MENOMINEE      LGT RAIN  39  37  93 SW7       29.66F FOG     WCI  34
6HR MIN TEMP:  39; 6HR MAX TEMP:  42; 6HR PCP:  0.16;

SAWYER-GWINN   LGT RAIN  36  34  93 SW5       29.66F WCI  32
$$
MIZ001>003-009>011-084-180100-
WESTERN UPPER MICHIGAN

CITY           SKY/WX    TMP DP  RH WIND       PRES   REMARKS
IRON MOUNTAIN  LGT RAIN  34  32  92 S3        29.64F FOG
6HR MIN TEMP:  34; 6HR MAX TEMP:  37; 6HR PCP:  0.01;

HOUGHTON       LGT SNOW  33  31  92 CALM      29.64R FOG
6HR MIN TEMP:  33; 6HR MAX TEMP:  35; 6HR PCP:  0.46;

COPPER HARBOR    N/A     33  31  92 CALM      29.65F
6HR MIN TEMP:  33; 6HR MAX TEMP:  38; 6HR PCP:  0.59;

IRONWOOD       LGT SNOW N/A N/A N/A CALM      29.65R
                                      6HR PCP:  0.16;

$$

ABBREVIATIONS USED IN REMARKS
   TC - TEMPERATURE IN CELSIUS
  WCI - WIND CHILL INDEX
   HX - HEAT INDEX
  VSB - VISIBILITY





USA.gov is the U.S. government's official web portal to all federal, state and local government web resources and services.